Ludington, MI

1:02 PM EDT on October 22, 2019 (GMT -0400)
Mason County

Weather History for KLDM - May, 2019

Change the Weather History Date:

Saturday, May 18, 2019

  Actual Average Record
Temperature  
Mean Temperature 58 °F -  
Max Temperature 70 °F 68 °F 83 °F (1972)
Min Temperature 45 °F 44 °F 30 °F (1981)
Degree Days  
Heating Degree Days 8    
Growing Degree Days 8 (Base 50)    
Moisture  
Dew Point 48 °F    
Average Humidity 79    
Maximum Humidity 97    
Minimum Humidity 58    
Precipitation  
Precipitation 0.08 in - - ()
Sea Level Pressure  
Sea Level Pressure 29.84 in    
Wind  
Wind Speed 6 mph (ESE)    
Max Wind Speed 14 mph    
Max Gust Speed 20 mph    
Visibility 9 miles    
Events Rain    
Averages and records for this station are not official NWS values.
T = Trace of Precipitation, MM = Missing Value Source: NWS Daily Summary

Daily Weather History Graph

Daily Weather History Graph

Search for Another Location

Airport or City:

Astronomy

May. 18, 2019 Rise Set
Actual Time 6:16 AM EDT 9:07 PM EDT
Civil Twilight 5:43 AM EDT 9:41 PM EDT
Nautical Twilight 5:00 AM EDT 10:24 PM EDT
Astronomical Twilight 4:10 AM EDT 11:14 PM EDT
Moon 9:00 PM EDT (5/18) 6:26 AM EDT (5/18)
Length of Visible Light 15h 58m
Length of Day
14h 51m
Full, 100% of the Moon is Illuminated
May 18
Full
May 18
Full
May 26
Last Quarter
Jun 3
New
Jun 10
First Quarter

Hourly Weather History & Observations

Time (EDT) Temp. Windchill Dew Point Humidity Pressure Visibility Wind Dir Wind Speed Gust Speed Precip Events Conditions
12:15 AM 49.1 °F - 34.7 °F 58% 29.95 in 10.0 mi ENE 5.8 mph - N/A   Overcast
12:16 AM 49.1 °F - 34.7 °F 58% 29.95 in 10.0 mi NE 5.8 mph - N/A   Overcast
12:35 AM 49.1 °F - 34.7 °F 58% 29.95 in 10.0 mi East 8.1 mph - N/A   Overcast
12:55 AM 48.7 °F - 34.5 °F 58% 29.95 in 10.0 mi East 8.1 mph - N/A   Overcast
1:15 AM 48.4 °F - 34.9 °F 60% 29.95 in 10.0 mi East 6.9 mph - N/A   Mostly Cloudy
1:35 AM 48.2 °F - 34.3 °F 59% 29.93 in 10.0 mi East 6.9 mph - N/A   Mostly Cloudy
1:36 AM 48.2 °F - 34.3 °F 59% 29.93 in 10.0 mi East 6.9 mph - N/A   Mostly Cloudy
1:55 AM 48.2 °F - 34.7 °F 60% 29.93 in 10.0 mi ENE 4.6 mph - N/A   Mostly Cloudy
1:56 AM 48.2 °F - 34.7 °F 60% 29.93 in 10.0 mi ENE 3.5 mph - N/A   Mostly Cloudy
2:15 AM 48.6 °F - 34.3 °F 58% 29.93 in 10.0 mi ENE 5.8 mph - N/A   Overcast
2:35 AM 48.2 °F - 34.2 °F 58% 29.92 in 10.0 mi ENE 6.9 mph - N/A   Overcast
2:55 AM 48.2 °F - 34.5 °F 59% 29.92 in 10.0 mi ENE 4.6 mph - N/A   Overcast
2:56 AM 48.2 °F - 34.5 °F 59% 29.92 in 10.0 mi ENE 5.8 mph - N/A   Overcast
3:15 AM 48.4 °F - 34.7 °F 59% 29.92 in 10.0 mi ENE 4.6 mph - N/A   Overcast
3:16 AM 48.4 °F - 34.7 °F 59% 29.92 in 10.0 mi East 4.6 mph - N/A   Overcast
3:35 AM 48.2 °F - 35.1 °F 60% 29.92 in 10.0 mi ENE 5.8 mph - N/A   Overcast
3:36 AM 48.2 °F - 35.1 °F 60% 29.92 in 10.0 mi East 5.8 mph - N/A   Overcast
3:55 AM 48.2 °F - 35.4 °F 61% 29.93 in 10.0 mi Calm Calm - N/A   Light Drizzle
4:15 AM 47.5 °F - 36.7 °F 66% 29.93 in 10.0 mi Calm Calm - N/A Rain Light Rain
4:35 AM 45.9 °F - 40.3 °F 81% 29.92 in 10.0 mi Calm Calm - N/A Rain Rain
4:36 AM 45.9 °F 44.6 °F 40.3 °F 81% 29.92 in 10.0 mi East 3.5 mph - N/A Rain Light Rain
4:55 AM 45.5 °F - 40.8 °F 84% 29.92 in 10.0 mi Calm Calm - 0.01 in Rain Light Rain
4:56 AM 45.5 °F - 40.8 °F 84% 29.92 in 10.0 mi Calm Calm - 0.01 in Rain Rain
5:15 AM 45.1 °F - 42.1 °F 89% 29.92 in 7.0 mi Calm Calm - 0.02 in Rain Rain
5:16 AM 45.0 °F 43.5 °F 42.1 °F 90% 29.92 in 7.0 mi ENE 3.5 mph - 0.03 in Rain Rain
5:35 AM 45.1 °F - 42.8 °F 91% 29.91 in 10.0 mi Calm Calm - 0.06 in Rain Rain
5:36 AM 45.3 °F - 42.8 °F 91% 29.91 in 10.0 mi Calm Calm - 0.06 in Rain Rain
5:55 AM 45.5 °F - 43.2 °F 92% 29.92 in 10.0 mi Calm Calm - 0.07 in   Light Drizzle
6:15 AM 45.7 °F 43.4 °F 43.9 °F 93% 29.92 in 10.0 mi East 4.6 mph - N/A   Overcast
6:35 AM 46.6 °F - 44.4 °F 92% 29.90 in 10.0 mi East 8.1 mph - N/A   Overcast
6:36 AM 46.6 °F - 44.6 °F 93% 29.90 in 10.0 mi East 8.1 mph - N/A   Overcast
6:55 AM 47.3 °F - 45.5 °F 93% 29.90 in 10.0 mi East 4.6 mph - N/A   Overcast
6:56 AM 47.3 °F - 45.5 °F 93% 29.90 in 10.0 mi East 5.8 mph - N/A   Overcast
7:15 AM 47.8 °F - 46.0 °F 93% 29.90 in 10.0 mi East 4.6 mph - N/A   Overcast
7:16 AM 47.8 °F - 46.0 °F 93% 29.90 in 10.0 mi East 4.6 mph - N/A   Overcast
7:35 AM 48.2 °F - 46.0 °F 92% 29.91 in 10.0 mi ENE 4.6 mph - N/A   Overcast
7:55 AM 48.4 °F - 46.6 °F 93% 29.90 in 10.0 mi East 8.1 mph - N/A   Overcast
8:15 AM 48.4 °F - 46.9 °F 95% 29.90 in 3.0 mi East 5.8 mph - N/A   Overcast
8:16 AM 48.4 °F - 46.9 °F 95% 29.90 in 3.0 mi East 6.9 mph - N/A   Overcast
8:35 AM 48.9 °F - 47.5 °F 95% 29.89 in 1.8 mi East 8.1 mph - N/A   Overcast
8:36 AM 48.9 °F - 47.7 °F 95% 29.89 in 1.8 mi East 6.9 mph - N/A   Overcast
8:55 AM 49.1 °F - 48.2 °F 97% 29.88 in 3.0 mi East 9.2 mph - N/A   Overcast
9:15 AM 49.6 °F - 48.4 °F 95% 29.89 in 5.0 mi East 8.1 mph - N/A   Overcast
9:35 AM 50.2 °F - 49.1 °F 96% 29.88 in 5.0 mi East 8.1 mph - N/A   Overcast
9:36 AM 50.2 °F - 49.1 °F 96% 29.88 in 5.0 mi East 9.2 mph - N/A   Overcast
9:55 AM 50.9 °F - 49.3 °F 94% 29.88 in 5.0 mi East 8.1 mph - N/A   Overcast
9:56 AM 50.9 °F - 49.3 °F 94% 29.88 in 5.0 mi East 8.1 mph - N/A   Overcast
10:15 AM 51.8 °F - 49.6 °F 92% 29.87 in 5.0 mi East 8.1 mph - N/A   Overcast
10:35 AM 52.7 °F - 50.4 °F 92% 29.86 in 7.0 mi East 8.1 mph - N/A   Overcast
10:55 AM 54.3 °F - 50.7 °F 88% 29.85 in 10.0 mi East 9.2 mph - N/A   Overcast
11:15 AM 55.2 °F - 51.1 °F 86% 29.84 in 10.0 mi ESE 10.4 mph - N/A   Overcast
11:16 AM 55.2 °F - 50.9 °F 85% 29.84 in 10.0 mi ESE 9.2 mph - N/A   Overcast
11:35 AM 56.3 °F - 51.4 °F 84% 29.84 in 10.0 mi ESE 11.5 mph - N/A   Overcast
11:36 AM 56.3 °F - 51.4 °F 84% 29.84 in 10.0 mi SE 9.2 mph - N/A   Overcast
11:55 AM 57.2 °F - 51.8 °F 82% 29.85 in 10.0 mi SE 6.9 mph - N/A   Overcast
12:15 PM 57.6 °F - 52.0 °F 82% 29.86 in 10.0 mi SE 5.8 mph - N/A   Overcast
12:35 PM 58.5 °F - 52.3 °F 80% 29.86 in 10.0 mi SE 3.5 mph - N/A   Overcast
12:55 PM 59.0 °F - 52.7 °F 80% 29.85 in 10.0 mi SE 5.8 mph - N/A   Overcast
12:56 PM 59.0 °F - 52.7 °F 80% 29.85 in 10.0 mi SE 5.8 mph - N/A   Overcast
1:15 PM 59.7 °F - 53.2 °F 79% 29.85 in 10.0 mi SE 6.9 mph - N/A   Overcast
1:16 PM 59.7 °F - 53.1 °F 79% 29.85 in 10.0 mi SE 6.9 mph - N/A   Overcast
1:35 PM 60.3 °F - 53.4 °F 78% 29.84 in 10.0 mi SE 8.1 mph - N/A   Overcast
1:55 PM 60.8 °F - 53.6 °F 77% 29.82 in 10.0 mi SE 8.1 mph - N/A   Overcast
1:56 PM 60.8 °F - 53.6 °F 77% 29.82 in 10.0 mi SE 6.9 mph - N/A   Overcast
2:15 PM 61.3 °F - 54.0 °F 77% 29.82 in 10.0 mi ESE 8.1 mph - N/A   Overcast
2:16 PM 61.5 °F - 54.0 °F 76% 29.81 in 10.0 mi ESE 8.1 mph - N/A   Overcast
2:35 PM 61.9 °F - 54.0 °F 75% 29.80 in 10.0 mi SE 8.1 mph - N/A   Overcast
2:36 PM 61.9 °F - 54.1 °F 76% 29.80 in 10.0 mi SE 8.1 mph - N/A   Overcast
2:55 PM 63.0 °F - 54.9 °F 75% 29.78 in 10.0 mi SE 8.1 mph - N/A   Overcast
3:15 PM 64.6 °F - 55.2 °F 72% 29.77 in 10.0 mi SE 11.5 mph - N/A   Mostly Cloudy
3:35 PM 64.8 °F - 55.6 °F 72% 29.74 in 10.0 mi SE 11.5 mph 16.1 mph N/A   Scattered Clouds
3:36 PM 64.9 °F - 55.6 °F 72% 29.74 in 10.0 mi SE 11.5 mph 16.1 mph N/A   Scattered Clouds
3:55 PM 66.6 °F - 56.5 °F 70% 29.72 in 10.0 mi SE 13.8 mph 18.4 mph N/A   Clear
3:56 PM 66.6 °F - 56.5 °F 70% 29.72 in 10.0 mi SE 13.8 mph 19.6 mph N/A   Clear
4:15 PM 67.5 °F - 57.0 °F 69% 29.70 in 10.0 mi ESE 10.4 mph 17.3 mph N/A   Scattered Clouds
4:35 PM 69.3 °F - 58.1 °F 68% 29.70 in 10.0 mi SE 12.7 mph 17.3 mph N/A   Clear
4:55 PM 69.4 °F - 58.5 °F 68% 29.72 in 10.0 mi SSE 10.4 mph - N/A   Clear
4:56 PM 69.6 °F - 58.6 °F 68% 29.72 in 10.0 mi South 10.4 mph - N/A   Clear
5:15 PM 70.0 °F - 59.0 °F 68% 29.73 in 10.0 mi SSE 9.2 mph 17.3 mph N/A   Clear
5:16 PM 70.0 °F - 59.0 °F 68% 29.73 in 10.0 mi SSE 9.2 mph 17.3 mph N/A   Clear
5:35 PM 70.7 °F - 59.4 °F 67% 29.73 in 10.0 mi SSE 8.1 mph - N/A   Scattered Clouds
5:55 PM 70.9 °F - 59.7 °F 68% 29.74 in 10.0 mi SSW 3.5 mph - N/A   Mostly Cloudy
6:15 PM 63.1 °F - 54.0 °F 72% 29.74 in 10.0 mi West 5.8 mph - N/A   Mostly Cloudy
6:16 PM 62.6 °F - 53.6 °F 72% 29.74 in 10.0 mi West 6.9 mph - N/A   Mostly Cloudy
6:35 PM 60.6 °F - 53.6 °F 78% 29.74 in 7.0 mi WNW 3.5 mph - N/A   Overcast
6:36 PM 60.6 °F - 53.6 °F 78% 29.74 in 7.0 mi NW 3.5 mph - N/A   Overcast
6:55 PM 60.1 °F - 54.0 °F 80% 29.75 in 7.0 mi West 3.5 mph - N/A   Mostly Cloudy
7:15 PM 59.2 °F - 54.1 °F 83% 29.76 in 5.0 mi WSW 4.6 mph - N/A   Haze
7:35 PM 59.2 °F - 54.1 °F 83% 29.74 in 5.0 mi North 3.5 mph - N/A   Haze
7:36 PM 59.2 °F - 54.1 °F 83% 29.74 in 5.0 mi North 3.5 mph - N/A   Haze
7:55 PM 60.3 °F - 55.0 °F 83% 29.74 in 7.0 mi Calm Calm - N/A   Overcast
7:56 PM 60.3 °F - 55.0 °F 83% 29.75 in 7.0 mi Calm Calm - N/A   Overcast
8:15 PM 59.7 °F - 54.1 °F 82% 29.75 in 7.0 mi Calm Calm - N/A   Overcast
8:35 PM 59.2 °F - 54.0 °F 83% 29.76 in 10.0 mi NW 3.5 mph - N/A   Overcast
8:55 PM 59.0 °F - 54.0 °F 83% 29.75 in 10.0 mi Calm Calm - N/A   Overcast
8:56 PM 59.0 °F - 53.8 °F 83% 29.75 in 10.0 mi Calm Calm - N/A   Overcast
9:15 PM 59.0 °F - 54.5 °F 85% 29.76 in 10.0 mi Calm Calm - N/A   Overcast
9:16 PM 59.0 °F - 54.5 °F 85% 29.76 in 10.0 mi Calm Calm - N/A   Overcast
9:35 PM 59.0 °F - 54.7 °F 86% 29.76 in 10.0 mi Calm Calm - N/A   Overcast
9:55 PM 59.0 °F - 54.7 °F 86% 29.77 in 7.0 mi South 3.5 mph - N/A   Overcast
10:15 PM 58.5 °F - 54.5 °F 87% 29.76 in 7.0 mi Calm Calm - N/A   Overcast
10:16 PM 58.5 °F - 54.5 °F 87% 29.77 in 7.0 mi Calm Calm - N/A   Overcast
10:35 PM 58.5 °F - 54.5 °F 87% 29.77 in 7.0 mi Calm Calm - N/A   Mostly Cloudy
10:36 PM 58.5 °F - 54.5 °F 87% 29.77 in 7.0 mi Calm Calm - N/A   Mostly Cloudy
10:55 PM 59.0 °F - 54.5 °F 85% 29.77 in 7.0 mi Calm Calm - N/A   Overcast
11:15 PM 56.1 °F - 50.0 °F 80% 29.77 in 7.0 mi West 4.6 mph - N/A   Overcast
11:35 PM 51.3 °F - 47.7 °F 87% 29.77 in 7.0 mi Calm Calm - N/A   Overcast
11:36 PM 51.3 °F - 47.7 °F 87% 29.77 in 7.0 mi Calm Calm - N/A   Overcast
11:55 PM 51.8 °F - 48.2 °F 88% 29.77 in 7.0 mi Calm Calm - N/A   Overcast
11:56 PM 51.8 °F - 48.2 °F 88% 29.77 in 7.0 mi Calm Calm - N/A   Overcast